OneWeb SL0511

operational
NORAD ID: 54129 Int'l Des: 2022-138 Owner: ONEWEBN Country: UK Constellation: oneweb
LEOCIRCULARPOLARONEWEB_TYPE

OneWeb SL0511について

説明を読み込み中...

リアルタイム位置

3D地球を読み込み中...

次回通過

高度履歴

Altitude vs Time

uPlot chart will show altitude changes over time

軌道要素

1 54129U 22138S 26095.15302155 .00000101 00000-0 22081-3 0 9999
2 54129 87.9193 319.5253 0001740 94.9015 265.2317 13.19725373167201
Epoch: Apr 5, 2026 • Age: 8 hours

現在のステータス

高度 1194.5 km
速度 7.26 km/s
衛星直下点 58.53°N, 128.82°E
打ち上げ日 Oct 22, 2022
運用期間 3.4 years
タイプ internet

技術仕様

分類 Payload
質量 148.00 kg
乾燥質量 140.00 kg
総質量 148.00 kg
長さ 1.30 m
直径 1.00 m
スパン 5.00 m
形状 Trapezoid+2 pan
製造者 ONEWUS
バスタイプ ARROW
フェーズステータス In Orbit
所有者/国 ONEWEBN/UK

大規模コンステレーション

Loading constellations...